Time,TemperatureF,DewpointF,PressureIn,WindDirection,WindDirectionDegrees,WindSpeedMPH,WindSpeedGustMPH,Humidity,HourlyPrecipIn,Conditions,Clouds,dailyrainin,SoftwareType,DateUTC
2013-03-07 00:02:00,29.7,18.2,30.29,NNE,22,0.0,0.0,62,0.00,,,0.00,WUHU21623XXSP,2013-03-07 06:02:00,
2013-03-07 00:07:00,29.5,18.4,30.29,NNE,22,0.0,0.0,63,0.00,,,0.00,WUHU21623XXSP,2013-03-07 06:07:00,
2013-03-07 00:12:00,29.5,18.4,30.29,NNE,22,0.0,0.0,63,0.00,,,0.00,WUHU21623XXSP,2013-03-07 06:12:00,
2013-03-07 00:17:00,29.3,18.2,30.29,NNE,22,0.0,0.0,63,0.00,,,0.00,WUHU21623XXSP,2013-03-07 06:17:00,
2013-03-07 00:22:00,29.3,18.2,30.29,NNE,22,0.0,0.0,63,0.00,,,0.00,WUHU21623XXSP,2013-03-07 06:22:00,
2013-03-07 00:27:00,29.3,18.2,30.29,NNE,22,0.0,0.0,63,0.00,,,0.00,WUHU21623XXSP,2013-03-07 06:27:00,
2013-03-07 00:32:00,29.3,18.6,30.28,East,90,0.0,0.0,64,0.00,,,0.00,WUHU21623XXSP,2013-03-07 06:32:00,
2013-03-07 00:37:00,29.5,18.8,30.28,East,90,0.0,0.0,64,0.00,,,0.00,WUHU21623XXSP,2013-03-07 06:37:00,
2013-03-07 00:42:00,29.7,18.9,30.28,East,90,0.0,0.0,64,0.00,,,0.00,WUHU21623XXSP,2013-03-07 06:42:00,
2013-03-07 00:47:00,29.7,18.9,30.28,East,90,0.0,0.0,64,0.00,,,0.00,WUHU21623XXSP,2013-03-07 06:47:00,
2013-03-07 00:52:00,29.7,19.3,30.28,ESE,112,0.0,0.0,65,0.00,,,0.00,WUHU21623XXSP,2013-03-07 06:52:00,
2013-03-07 00:57:00,29.8,19.4,30.28,ESE,112,0.0,0.0,65,0.00,,,0.00,WUHU21623XXSP,2013-03-07 06:57:00,
2013-03-07 01:02:00,30.2,19.8,30.28,ESE,112,0.0,0.0,65,0.00,,,0.00,WUHU21623XXSP,2013-03-07 07:02:00,
2013-03-07 01:07:00,30.4,20.3,30.28,SE,135,0.0,0.0,66,0.00,,,0.00,WUHU21623XXSP,2013-03-07 07:07:00,
2013-03-07 01:12:00,30.6,20.5,30.28,SE,135,0.0,0.0,66,0.00,,,0.00,WUHU21623XXSP,2013-03-07 07:12:00,
2013-03-07 01:17:00,30.9,20.8,30.28,ESE,112,0.0,0.0,66,0.00,,,0.00,WUHU21623XXSP,2013-03-07 07:17:00,
2013-03-07 01:22:00,30.7,20.7,30.28,ESE,112,0.0,0.0,66,0.00,,,0.00,WUHU21623XXSP,2013-03-07 07:22:00,
2013-03-07 01:27:00,30.7,20.7,30.28,East,90,2.7,2.7,66,0.00,,,0.00,WUHU21623XXSP,2013-03-07 07:27:00,
2013-03-07 01:32:00,30.9,20.8,30.28,East,90,1.3,2.7,66,0.00,,,0.00,WUHU21623XXSP,2013-03-07 07:32:00,
2013-03-07 01:37:00,30.9,20.8,30.28,East,90,0.0,1.3,66,0.00,,,0.00,WUHU21623XXSP,2013-03-07 07:37:00,
2013-03-07 01:42:00,30.9,21.2,30.29,East,90,0.0,0.0,67,0.00,,,0.00,WUHU21623XXSP,2013-03-07 07:42:00,
2013-03-07 01:47:00,30.9,21.2,30.28,East,90,0.0,0.0,67,0.00,,,0.00,WUHU21623XXSP,2013-03-07 07:47:00,
2013-03-07 01:52:00,30.9,21.2,30.29,East,90,0.0,0.0,67,0.00,,,0.00,WUHU21623XXSP,2013-03-07 07:52:00,
2013-03-07 01:57:00,31.1,21.4,30.29,East,90,0.0,0.0,67,0.00,,,0.00,WUHU21623XXSP,2013-03-07 07:57:00,
2013-03-07 02:02:00,30.9,21.2,30.29,East,90,0.0,0.0,67,0.00,,,0.00,WUHU21623XXSP,2013-03-07 08:02:00,
2013-03-07 02:07:00,31.1,21.4,30.29,East,90,0.0,0.0,67,0.00,,,0.00,WUHU21623XXSP,2013-03-07 08:07:00,
2013-03-07 02:12:00,31.1,21.4,30.29,East,90,0.0,0.0,67,0.00,,,0.00,WUHU21623XXSP,2013-03-07 08:12:00,
2013-03-07 02:17:00,31.1,21.4,30.29,East,90,0.0,0.0,67,0.00,,,0.00,WUHU21623XXSP,2013-03-07 08:17:00,
2013-03-07 02:22:00,30.9,21.2,30.29,East,90,0.0,0.0,67,0.00,,,0.00,WUHU21623XXSP,2013-03-07 08:22:00,
2013-03-07 02:27:00,30.9,20.8,30.29,East,90,0.0,0.0,66,0.00,,,0.00,WUHU21623XXSP,2013-03-07 08:27:00,
2013-03-07 02:32:00,30.9,20.8,30.30,East,90,0.0,0.0,66,0.00,,,0.00,WUHU21623XXSP,2013-03-07 08:32:00,
2013-03-07 02:37:00,30.9,21.2,30.30,East,90,0.0,0.0,67,0.00,,,0.00,WUHU21623XXSP,2013-03-07 08:37:00,
2013-03-07 02:42:00,31.1,21.4,30.30,East,90,0.0,0.0,67,0.00,,,0.00,WUHU21623XXSP,2013-03-07 08:42:00,
2013-03-07 02:47:00,31.1,21.4,30.30,East,90,0.0,0.0,67,0.00,,,0.00,WUHU21623XXSP,2013-03-07 08:47:00,
2013-03-07 02:52:00,31.1,21.4,30.31,East,90,0.0,0.0,67,0.00,,,0.00,WUHU21623XXSP,2013-03-07 08:52:00,
2013-03-07 02:57:00,31.1,21.4,30.31,East,90,0.0,0.0,67,0.00,,,0.00,WUHU21623XXSP,2013-03-07 08:57:00,
2013-03-07 03:02:00,31.1,21.4,30.31,East,90,0.0,0.0,67,0.00,,,0.00,WUHU21623XXSP,2013-03-07 09:02:00,
2013-03-07 03:07:00,31.3,21.6,30.30,East,90,0.0,0.0,67,0.00,,,0.00,WUHU21623XXSP,2013-03-07 09:07:00,
2013-03-07 03:12:00,31.3,21.6,30.29,East,90,0.0,0.0,67,0.00,,,0.00,WUHU21623XXSP,2013-03-07 09:12:00,
2013-03-07 03:17:00,31.3,21.6,30.29,East,90,0.0,0.0,67,0.00,,,0.00,WUHU21623XXSP,2013-03-07 09:17:00,
2013-03-07 03:22:00,31.1,21.4,30.29,East,90,0.0,0.0,67,0.00,,,0.00,WUHU21623XXSP,2013-03-07 09:22:00,
2013-03-07 03:27:00,31.1,21.4,30.29,East,90,0.0,0.0,67,0.00,,,0.00,WUHU21623XXSP,2013-03-07 09:27:00,
2013-03-07 03:32:00,30.9,21.2,30.29,East,90,0.0,0.0,67,0.00,,,0.00,WUHU21623XXSP,2013-03-07 09:32:00,
2013-03-07 03:37:00,30.7,21.2,30.30,East,90,0.0,0.0,67,0.00,,,0.00,WUHU21623XXSP,2013-03-07 09:37:00,
2013-03-07 03:42:00,30.6,20.8,30.30,East,90,0.0,0.0,67,0.00,,,0.00,WUHU21623XXSP,2013-03-07 09:42:00,
2013-03-07 03:47:00,30.7,21.4,30.30,East,90,0.0,0.0,68,0.00,,,0.00,WUHU21623XXSP,2013-03-07 09:47:00,
2013-03-07 03:52:00,30.7,21.4,30.30,East,90,0.0,0.0,68,0.00,,,0.00,WUHU21623XXSP,2013-03-07 09:52:00,
2013-03-07 03:57:00,30.7,21.4,30.30,East,90,0.0,0.0,68,0.00,,,0.00,WUHU21623XXSP,2013-03-07 09:57:00,
2013-03-07 04:02:00,30.6,21.2,30.31,East,90,0.0,0.0,68,0.00,,,0.00,WUHU21623XXSP,2013-03-07 10:02:00,
2013-03-07 04:07:00,30.4,21.0,30.30,East,90,0.0,0.0,68,0.00,,,0.00,WUHU21623XXSP,2013-03-07 10:07:00,
2013-03-07 04:12:00,30.4,21.0,30.30,East,90,0.0,0.0,68,0.00,,,0.00,WUHU21623XXSP,2013-03-07 10:12:00,
2013-03-07 04:17:00,30.4,21.0,30.31,East,90,0.0,0.0,68,0.00,,,0.00,WUHU21623XXSP,2013-03-07 10:17:00,
2013-03-07 04:22:00,30.4,21.0,30.31,East,90,0.0,0.0,68,0.00,,,0.00,WUHU21623XXSP,2013-03-07 10:22:00,
2013-03-07 04:27:00,30.0,20.7,30.31,East,90,0.0,0.0,68,0.00,,,0.00,WUHU21623XXSP,2013-03-07 10:27:00,
2013-03-07 04:32:00,30.0,20.7,30.31,East,90,0.0,0.0,68,0.00,,,0.00,WUHU21623XXSP,2013-03-07 10:32:00,
2013-03-07 04:37:00,29.8,20.5,30.31,East,90,0.0,0.0,68,0.00,,,0.00,WUHU21623XXSP,2013-03-07 10:37:00,
2013-03-07 04:42:00,29.8,20.5,30.31,East,90,0.0,0.0,68,0.00,,,0.00,WUHU21623XXSP,2013-03-07 10:42:00,
2013-03-07 04:47:00,29.8,20.5,30.31,East,90,0.0,0.0,68,0.00,,,0.00,WUHU21623XXSP,2013-03-07 10:47:00,
2013-03-07 04:52:00,29.8,20.5,30.31,East,90,0.0,0.0,68,0.00,,,0.00,WUHU21623XXSP,2013-03-07 10:52:00,
2013-03-07 04:57:00,29.7,20.4,30.31,East,90,0.0,0.0,68,0.00,,,0.00,WUHU21623XXSP,2013-03-07 10:57:00,
2013-03-07 05:02:00,29.5,20.2,30.31,East,90,0.0,0.0,68,0.00,,,0.00,WUHU21623XXSP,2013-03-07 11:02:00,
2013-03-07 05:07:00,29.5,20.2,30.31,East,90,0.0,0.0,68,0.00,,,0.00,WUHU21623XXSP,2013-03-07 11:07:00,
2013-03-07 05:12:00,29.3,20.0,30.32,East,90,0.0,0.0,68,0.00,,,0.00,WUHU21623XXSP,2013-03-07 11:12:00,
2013-03-07 05:18:00,29.5,20.2,30.33,East,90,0.0,0.0,68,0.00,,,0.00,WUHU21623XXSP,2013-03-07 11:18:00,
2013-03-07 05:23:00,29.5,20.0,30.32,East,90,0.0,0.0,69,0.00,,,0.00,WUHU21623XXSP,2013-03-07 11:23:00,
2013-03-07 05:28:00,29.7,20.7,30.32,East,90,0.0,0.0,69,0.00,,,0.00,WUHU21623XXSP,2013-03-07 11:28:00,
2013-03-07 05:33:00,29.8,20.9,30.32,East,90,0.0,0.0,69,0.00,,,0.00,WUHU21623XXSP,2013-03-07 11:33:00,
2013-03-07 05:38:00,30.0,21.4,30.33,East,90,0.0,0.0,70,0.00,,,0.00,WUHU21623XXSP,2013-03-07 11:38:00,
2013-03-07 05:43:00,30.4,22.1,30.33,East,90,0.0,0.0,71,0.00,,,0.00,WUHU21623XXSP,2013-03-07 11:43:00,
2013-03-07 05:48:00,30.6,22.2,30.33,East,90,1.6,1.8,71,0.00,,,0.00,WUHU21623XXSP,2013-03-07 11:48:00,
2013-03-07 05:53:00,30.7,22.4,30.34,ENE,67,1.1,4.7,71,0.00,,,0.00,WUHU21623XXSP,2013-03-07 11:53:00,
2013-03-07 05:58:00,30.9,22.9,30.33,ENE,67,0.0,4.7,72,0.00,,,0.00,WUHU21623XXSP,2013-03-07 11:58:00,
2013-03-07 06:03:00,31.1,23.1,30.34,ENE,67,0.0,2.0,72,0.00,,,0.00,WUHU21623XXSP,2013-03-07 12:03:00,
2013-03-07 06:08:00,31.1,23.1,30.34,ENE,67,0.0,0.7,72,0.00,,,0.00,WUHU21623XXSP,2013-03-07 12:08:00,
2013-03-07 06:13:00,31.1,23.1,30.34,East,90,0.0,0.9,72,0.00,,,0.00,WUHU21623XXSP,2013-03-07 12:13:00,
2013-03-07 06:18:00,31.1,23.1,30.34,SE,135,0.0,0.9,72,0.00,,,0.00,WUHU21623XXSP,2013-03-07 12:18:00,
2013-03-07 06:23:00,31.1,23.1,30.35,SE,135,0.0,0.4,72,0.00,,,0.00,WUHU21623XXSP,2013-03-07 12:23:00,
2013-03-07 06:28:00,31.3,23.3,30.35,ENE,67,0.0,0.7,72,0.00,,,0.00,WUHU21623XXSP,2013-03-07 12:28:00,
2013-03-07 06:33:00,31.3,23.3,30.35,East,90,0.0,0.7,72,0.00,,,0.00,WUHU21623XXSP,2013-03-07 12:33:00,
2013-03-07 06:38:00,31.5,23.5,30.35,East,90,0.0,0.0,72,0.00,,,0.00,WUHU21623XXSP,2013-03-07 12:38:00,
2013-03-07 06:43:00,31.5,23.5,30.35,East,90,0.0,0.0,72,0.00,,,0.00,WUHU21623XXSP,2013-03-07 12:43:00,
2013-03-07 06:48:00,31.5,23.5,30.35,East,90,0.0,0.0,72,0.00,,,0.00,WUHU21623XXSP,2013-03-07 12:48:00,
2013-03-07 06:53:00,31.6,23.6,30.36,ESE,112,0.0,0.0,72,0.00,,,0.00,WUHU21623XXSP,2013-03-07 12:53:00,
2013-03-07 06:58:00,31.6,23.6,30.36,ESE,112,0.0,0.0,72,0.00,,,0.00,WUHU21623XXSP,2013-03-07 12:58:00,
2013-03-07 07:03:00,31.8,23.8,30.36,East,90,1.3,1.3,72,0.00,,,0.00,WUHU21623XXSP,2013-03-07 13:03:00,
2013-03-07 07:08:00,32.2,24.2,30.36,ESE,112,0.7,1.3,72,0.00,,,0.00,WUHU21623XXSP,2013-03-07 13:08:00,
2013-03-07 07:13:00,32.2,24.2,30.35,East,90,2.2,2.2,72,0.00,,,0.00,WUHU21623XXSP,2013-03-07 13:13:00,
2013-03-07 07:18:00,32.4,24.3,30.36,East,90,0.0,2.5,72,0.00,,,0.00,WUHU21623XXSP,2013-03-07 13:18:00,
2013-03-07 07:23:00,32.5,24.5,30.36,SE,135,0.0,4.0,72,0.00,,,0.00,WUHU21623XXSP,2013-03-07 13:23:00,
2013-03-07 07:28:00,32.5,24.5,30.36,ESE,112,3.8,4.0,72,0.00,,,0.00,WUHU21623XXSP,2013-03-07 13:28:00,
2013-03-07 07:33:00,32.9,24.8,30.36,SE,135,4.9,6.7,72,0.00,,,0.00,WUHU21623XXSP,2013-03-07 13:33:00,
2013-03-07 07:38:00,32.9,24.8,30.36,East,90,3.8,6.7,72,0.00,,,0.00,WUHU21623XXSP,2013-03-07 13:38:00,
2013-03-07 07:43:00,33.3,25.1,30.36,SE,135,4.5,4.5,72,0.00,,,0.00,WUHU21623XXSP,2013-03-07 13:43:00,
2013-03-07 07:48:00,33.4,25.3,30.36,ESE,112,2.2,4.5,72,0.00,,,0.00,WUHU21623XXSP,2013-03-07 13:48:00,
2013-03-07 07:53:00,33.6,25.5,30.36,SE,135,6.5,6.7,72,0.00,,,0.00,WUHU21623XXSP,2013-03-07 13:53:00,
2013-03-07 07:58:00,34.0,25.8,30.37,SE,135,3.1,10.7,72,0.00,,,0.00,WUHU21623XXSP,2013-03-07 13:58:00,
2013-03-07 08:03:00,34.2,26.0,30.37,East,90,0.0,10.7,72,0.00,,,0.00,WUHU21623XXSP,2013-03-07 14:03:00,
2013-03-07 08:08:00,34.3,26.2,30.37,SE,135,1.6,2.9,72,0.00,,,0.00,WUHU21623XXSP,2013-03-07 14:08:00,
2013-03-07 08:13:00,34.5,26.3,30.37,ESE,112,0.7,3.1,72,0.00,,,0.00,WUHU21623XXSP,2013-03-07 14:13:00,
2013-03-07 08:18:00,34.9,26.7,30.37,East,90,3.8,5.4,72,0.00,,,0.00,WUHU21623XXSP,2013-03-07 14:18:00,
2013-03-07 08:24:00,35.1,26.9,30.36,SE,135,7.2,7.2,72,0.00,,,0.00,WUHU21623XXSP,2013-03-07 14:24:00,
2013-03-07 08:29:00,35.4,26.9,30.37,ESE,112,2.7,7.2,71,0.00,,,0.00,WUHU21623XXSP,2013-03-07 14:29:00,
2013-03-07 08:34:00,35.8,27.3,30.37,SE,135,5.1,6.7,71,0.00,,,0.00,WUHU21623XXSP,2013-03-07 14:34:00,
2013-03-07 08:39:00,36.1,27.6,30.37,ESE,112,5.4,6.7,71,0.00,,,0.00,WUHU21623XXSP,2013-03-07 14:39:00,
2013-03-07 08:44:00,36.5,28.0,30.37,ESE,112,5.8,5.8,71,0.00,,,0.00,WUHU21623XXSP,2013-03-07 14:44:00,
2013-03-07 08:49:00,36.9,28.4,30.38,ESE,112,5.6,5.8,71,0.00,,,0.00,WUHU21623XXSP,2013-03-07 14:49:00,
2013-03-07 08:54:00,37.4,28.9,30.38,ENE,67,0.9,5.8,71,0.00,,,0.00,WUHU21623XXSP,2013-03-07 14:54:00,
2013-03-07 08:59:00,37.9,29.4,30.38,East,90,0.0,4.9,71,0.00,,,0.00,WUHU21623XXSP,2013-03-07 14:59:00,
2013-03-07 09:04:00,38.3,29.4,30.37,SE,135,2.7,2.7,70,0.00,,,0.00,WUHU21623XXSP,2013-03-07 15:04:00,
2013-03-07 09:09:00,38.7,29.7,30.38,ESE,112,4.0,4.0,70,0.00,,,0.00,WUHU21623XXSP,2013-03-07 15:09:00,
2013-03-07 09:14:00,39.2,29.8,30.37,East,90,2.5,4.0,69,0.00,,,0.00,WUHU21623XXSP,2013-03-07 15:14:00,
2013-03-07 09:19:00,39.6,29.8,30.37,SSE,157,0.9,2.5,68,0.00,,,0.00,WUHU21623XXSP,2013-03-07 15:19:00,
2013-03-07 09:24:00,39.7,30.0,30.37,SE,135,5.4,5.4,68,0.00,,,0.00,WUHU21623XXSP,2013-03-07 15:24:00,
2013-03-07 09:29:00,40.8,31.1,30.37,SE,135,4.0,5.4,68,0.00,,,0.00,WUHU21623XXSP,2013-03-07 15:29:00,
2013-03-07 09:34:00,41.5,31.4,30.37,ESE,112,7.8,7.8,67,0.00,,,0.00,WUHU21623XXSP,2013-03-07 15:34:00,
2013-03-07 09:39:00,41.9,31.4,30.36,SE,135,7.4,7.8,64,0.00,,,0.00,WUHU21623XXSP,2013-03-07 15:39:00,
2013-03-07 09:44:00,42.1,30.3,30.36,ESE,112,3.6,7.4,63,0.00,,,0.00,WUHU21623XXSP,2013-03-07 15:44:00,
2013-03-07 09:49:00,42.1,30.0,30.36,ESE,112,2.9,7.8,62,0.00,,,0.00,WUHU21623XXSP,2013-03-07 15:49:00,
2013-03-07 09:54:00,42.3,30.1,30.36,ESE,112,2.5,7.8,62,0.00,,,0.00,WUHU21623XXSP,2013-03-07 15:54:00,
2013-03-07 09:59:00,42.4,29.9,30.37,SSE,157,3.6,7.6,61,0.00,,,0.00,WUHU21623XXSP,2013-03-07 15:59:00,
2013-03-07 10:04:00,42.4,29.9,30.37,SE,135,6.9,7.6,61,0.00,,,0.00,WUHU21623XXSP,2013-03-07 16:04:00,
2013-03-07 10:09:00,42.6,30.1,30.37,ESE,112,4.5,6.9,61,0.00,,,0.00,WUHU21623XXSP,2013-03-07 16:09:00,
2013-03-07 10:14:00,42.6,29.7,30.38,North,0,0.0,4.7,60,0.00,,,0.00,WUHU21623XXSP,2013-03-07 16:14:00,
2013-03-07 10:19:00,43.0,30.0,30.38,SE,135,0.0,6.0,60,0.00,,,0.00,WUHU21623XXSP,2013-03-07 16:19:00,
2013-03-07 10:24:00,44.1,31.1,30.38,ESE,112,0.0,6.0,60,0.00,,,0.00,WUHU21623XXSP,2013-03-07 16:24:00,
2013-03-07 10:29:00,44.1,29.8,30.38,North,0,2.7,5.4,57,0.00,,,0.00,WUHU21623XXSP,2013-03-07 16:29:00,
2013-03-07 10:34:00,44.1,29.3,30.38,NNE,22,0.0,5.4,56,0.00,,,0.00,WUHU21623XXSP,2013-03-07 16:34:00,
2013-03-07 10:39:00,44.4,29.2,30.38,SE,135,7.6,7.6,55,0.00,,,0.00,WUHU21623XXSP,2013-03-07 16:39:00,
2013-03-07 10:44:00,45.3,30.5,30.38,ENE,67,4.5,7.6,56,0.00,,,0.00,WUHU21623XXSP,2013-03-07 16:44:00,
2013-03-07 10:49:00,46.4,31.9,30.38,SE,135,7.2,7.2,57,0.00,,,0.00,WUHU21623XXSP,2013-03-07 16:49:00,
2013-03-07 10:54:00,47.1,31.7,30.38,NE,45,0.0,7.2,55,0.00,,,0.00,WUHU21623XXSP,2013-03-07 16:54:00,
2013-03-07 10:59:00,47.5,30.6,30.38,North,0,0.0,0.9,52,0.00,,,0.00,WUHU21623XXSP,2013-03-07 16:59:00,
2013-03-07 11:05:00,48.4,31.0,30.37,NNW,337,3.1,3.1,51,0.00,,,0.00,WUHU21623XXSP,2013-03-07 17:05:00,
2013-03-07 11:10:00,48.2,30.8,30.37,SSE,157,4.9,5.8,51,0.00,,,0.00,WUHU21623XXSP,2013-03-07 17:10:00,
2013-03-07 11:15:00,49.5,31.6,30.37,SE,135,3.4,5.8,50,0.00,,,0.00,WUHU21623XXSP,2013-03-07 17:15:00,
2013-03-07 11:20:00,50.4,32.5,30.37,SE,135,1.6,4.3,50,0.00,,,0.00,WUHU21623XXSP,2013-03-07 17:20:00,
2013-03-07 11:25:00,50.5,31.6,30.37,NNE,22,0.0,4.3,48,0.00,,,0.00,WUHU21623XXSP,2013-03-07 17:25:00,
2013-03-07 11:30:00,50.9,31.7,30.36,ENE,67,2.2,5.4,48,0.00,,,0.00,WUHU21623XXSP,2013-03-07 17:30:00,
2013-03-07 11:35:00,51.4,31.8,30.36,NNE,22,1.6,5.4,47,0.00,,,0.00,WUHU21623XXSP,2013-03-07 17:35:00,
2013-03-07 11:40:00,52.0,31.7,30.36,ENE,67,0.0,1.6,46,0.00,,,0.00,WUHU21623XXSP,2013-03-07 17:40:00,
2013-03-07 11:45:00,51.8,30.5,30.36,NNW,337,0.0,0.2,44,0.00,,,0.00,WUHU21623XXSP,2013-03-07 17:45:00,
2013-03-07 11:50:00,51.4,30.1,30.36,ENE,67,3.1,3.6,44,0.00,,,0.00,WUHU21623XXSP,2013-03-07 17:50:00,
2013-03-07 11:55:00,52.0,31.2,30.36,NNE,22,0.0,4.5,45,0.00,,,0.00,WUHU21623XXSP,2013-03-07 17:55:00,
2013-03-07 12:00:00,52.7,31.8,30.36,SE,135,2.7,4.5,45,0.00,,,0.00,WUHU21623XXSP,2013-03-07 18:00:00,
2013-03-07 12:05:00,53.1,31.0,30.36,SSW,202,0.0,2.7,43,0.00,,,0.00,WUHU21623XXSP,2013-03-07 18:05:00,
2013-03-07 12:10:00,52.5,30.0,30.36,ESE,112,2.9,2.9,42,0.00,,,0.00,WUHU21623XXSP,2013-03-07 18:10:00,
2013-03-07 12:15:00,52.7,31.3,30.34,East,90,1.6,4.3,44,0.00,,,0.00,WUHU21623XXSP,2013-03-07 18:15:00,
2013-03-07 12:20:00,53.1,30.5,30.34,NNE,22,2.5,4.3,42,0.00,,,0.00,WUHU21623XXSP,2013-03-07 18:20:00,
2013-03-07 12:25:00,53.1,30.5,30.34,NE,45,0.0,3.8,42,0.00,,,0.00,WUHU21623XXSP,2013-03-07 18:25:00,
2013-03-07 12:30:00,53.2,30.6,30.34,North,0,0.0,3.8,42,0.00,,,0.00,WUHU21623XXSP,2013-03-07 18:30:00,
2013-03-07 12:35:00,53.1,30.1,30.33,SE,135,0.0,2.9,41,0.00,,,0.00,WUHU21623XXSP,2013-03-07 18:35:00,
2013-03-07 12:40:00,54.0,31.3,30.33,NE,45,1.8,1.8,42,0.00,,,0.00,WUHU21623XXSP,2013-03-07 18:40:00,
2013-03-07 12:45:00,54.3,31.6,30.33,ENE,67,0.7,3.1,42,0.00,,,0.00,WUHU21623XXSP,2013-03-07 18:45:00,
2013-03-07 12:50:00,55.0,32.3,30.33,NE,45,0.0,3.1,42,0.00,,,0.00,WUHU21623XXSP,2013-03-07 18:50:00,
2013-03-07 12:55:00,54.5,29.9,30.33,NE,45,1.3,2.9,39,0.00,,,0.00,WUHU21623XXSP,2013-03-07 18:55:00,
2013-03-07 13:00:00,54.0,28.8,30.33,WNW,292,1.8,2.9,38,0.00,,,0.00,WUHU21623XXSP,2013-03-07 19:00:00,
2013-03-07 13:05:00,53.4,28.3,30.33,South,180,1.6,2.7,38,0.00,,,0.00,WUHU21623XXSP,2013-03-07 19:05:00,
2013-03-07 13:10:00,54.1,30.3,30.33,ESE,112,2.0,4.0,40,0.00,,,0.00,WUHU21623XXSP,2013-03-07 19:10:00,
2013-03-07 13:15:00,54.9,31.5,30.32,ESE,112,5.1,5.1,41,0.00,,,0.00,WUHU21623XXSP,2013-03-07 19:15:00,
2013-03-07 13:20:00,56.3,33.4,30.32,ESE,112,4.9,5.1,42,0.00,,,0.00,WUHU21623XXSP,2013-03-07 19:20:00,
2013-03-07 13:25:00,57.4,33.2,30.32,NNW,337,4.5,4.9,40,0.00,,,0.00,WUHU21623XXSP,2013-03-07 19:25:00,
2013-03-07 13:31:00,57.4,31.8,30.32,East,90,3.4,4.5,38,0.00,,,0.00,WUHU21623XXSP,2013-03-07 19:31:00,
2013-03-07 13:36:00,57.6,32.0,30.31,East,90,4.0,4.0,38,0.00,,,0.00,WUHU21623XXSP,2013-03-07 19:36:00,
2013-03-07 13:41:00,57.9,31.6,30.31,East,90,0.7,4.0,37,0.00,,,0.00,WUHU21623XXSP,2013-03-07 19:41:00,
2013-03-07 13:46:00,57.4,29.7,30.30,NNE,22,0.0,4.0,35,0.00,,,0.00,WUHU21623XXSP,2013-03-07 19:46:00,
2013-03-07 13:51:00,57.2,30.3,30.30,East,90,0.7,3.4,36,0.00,,,0.00,WUHU21623XXSP,2013-03-07 19:51:00,
2013-03-07 13:56:00,57.7,30.8,30.31,East,90,0.0,2.9,36,0.00,,,0.00,WUHU21623XXSP,2013-03-07 19:56:00,
2013-03-07 14:01:00,57.6,29.2,30.30,NW,315,0.0,0.7,34,0.00,,,0.00,WUHU21623XXSP,2013-03-07 20:01:00,
2013-03-07 14:06:00,57.6,29.9,30.30,East,90,2.2,2.5,35,0.00,,,0.00,WUHU21623XXSP,2013-03-07 20:06:00,
2013-03-07 14:11:00,57.9,30.9,30.29,ENE,67,4.3,4.3,36,0.00,,,0.00,WUHU21623XXSP,2013-03-07 20:11:00,
2013-03-07 14:16:00,59.0,31.2,30.29,East,90,2.5,4.3,35,0.00,,,0.00,WUHU21623XXSP,2013-03-07 20:16:00,
2013-03-07 14:21:00,59.5,32.3,30.29,ESE,112,0.0,4.3,36,0.00,,,0.00,WUHU21623XXSP,2013-03-07 20:21:00,
2013-03-07 14:26:00,59.9,31.9,30.29,ENE,67,2.7,2.7,35,0.00,,,0.00,WUHU21623XXSP,2013-03-07 20:26:00,
2013-03-07 14:31:00,60.4,31.7,30.29,ESE,112,2.9,3.1,34,0.00,,,0.00,WUHU21623XXSP,2013-03-07 20:31:00,
2013-03-07 14:36:00,60.8,30.6,30.29,ESE,112,4.5,4.5,32,0.00,,,0.00,WUHU21623XXSP,2013-03-07 20:36:00,
2013-03-07 14:41:00,60.8,31.3,30.29,ESE,112,5.1,5.1,33,0.00,,,0.00,WUHU21623XXSP,2013-03-07 20:41:00,
2013-03-07 14:46:00,61.5,31.2,30.29,SE,135,2.9,5.1,32,0.00,,,0.00,WUHU21623XXSP,2013-03-07 20:46:00,
2013-03-07 14:51:00,61.0,28.3,30.29,North,0,0.0,5.1,29,0.00,,,0.00,WUHU21623XXSP,2013-03-07 20:51:00,
2013-03-07 14:56:00,60.3,29.4,30.29,East,90,3.6,5.1,31,0.00,,,0.00,WUHU21623XXSP,2013-03-07 20:56:00,
2013-03-07 15:01:00,60.4,30.3,30.29,SE,135,3.6,3.6,32,0.00,,,0.00,WUHU21623XXSP,2013-03-07 21:01:00,
2013-03-07 15:06:00,60.8,29.8,30.29,NW,315,0.0,3.6,31,0.00,,,0.00,WUHU21623XXSP,2013-03-07 21:06:00,
2013-03-07 15:11:00,60.1,27.6,30.29,ESE,112,2.2,4.5,29,0.00,,,0.00,WUHU21623XXSP,2013-03-07 21:11:00,
2013-03-07 15:16:00,60.3,30.1,30.28,ENE,67,3.6,4.5,32,0.00,,,0.00,WUHU21623XXSP,2013-03-07 21:16:00,
2013-03-07 15:21:00,61.3,31.0,30.28,East,90,2.7,4.5,32,0.00,,,0.00,WUHU21623XXSP,2013-03-07 21:21:00,
2013-03-07 15:26:00,61.7,29.9,30.28,ESE,112,6.0,6.0,30,0.00,,,0.00,WUHU21623XXSP,2013-03-07 21:26:00,
2013-03-07 15:31:00,61.7,29.9,30.28,NE,45,2.2,6.0,30,0.00,,,0.00,WUHU21623XXSP,2013-03-07 21:31:00,
2013-03-07 15:36:00,61.7,29.0,30.28,NE,45,0.0,4.0,29,0.00,,,0.00,WUHU21623XXSP,2013-03-07 21:36:00,
2013-03-07 15:41:00,61.7,29.9,30.28,ENE,67,0.9,2.9,30,0.00,,,0.00,WUHU21623XXSP,2013-03-07 21:41:00,
2013-03-07 15:46:00,62.1,30.3,30.28,SE,135,0.7,2.9,30,0.00,,,0.00,WUHU21623XXSP,2013-03-07 21:46:00,
2013-03-07 15:51:00,62.1,29.3,30.28,East,90,1.6,2.9,29,0.00,,,0.00,WUHU21623XXSP,2013-03-07 21:51:00,
2013-03-07 15:56:00,61.7,28.0,30.28,NW,315,0.0,2.2,28,0.00,,,0.00,WUHU21623XXSP,2013-03-07 21:56:00,
2013-03-07 16:01:00,60.8,26.3,30.28,WNW,292,0.0,2.2,27,0.00,,,0.00,WUHU21623XXSP,2013-03-07 22:01:00,
2013-03-07 16:07:00,60.4,27.9,30.28,ESE,112,0.0,2.0,29,0.00,,,0.00,WUHU21623XXSP,2013-03-07 22:07:00,
2013-03-07 16:12:00,60.8,28.2,30.28,NE,45,2.0,5.8,29,0.00,,,0.00,WUHU21623XXSP,2013-03-07 22:12:00,
2013-03-07 16:17:00,61.2,29.4,30.28,NE,45,0.0,5.8,30,0.00,,,0.00,WUHU21623XXSP,2013-03-07 22:17:00,
2013-03-07 16:22:00,61.3,29.6,30.27,NE,45,0.0,0.0,30,0.00,,,0.00,WUHU21623XXSP,2013-03-07 22:22:00,
2013-03-07 16:27:00,61.0,28.3,30.27,NNE,22,0.7,0.7,29,0.00,,,0.00,WUHU21623XXSP,2013-03-07 22:27:00,
2013-03-07 16:32:00,60.8,28.2,30.27,NNE,22,0.0,0.7,29,0.00,,,0.00,WUHU21623XXSP,2013-03-07 22:32:00,
2013-03-07 16:37:00,60.8,28.2,30.27,NNE,22,0.0,0.0,29,0.00,,,0.00,WUHU21623XXSP,2013-03-07 22:37:00,
2013-03-07 16:42:00,61.2,29.4,30.27,SE,135,0.9,3.1,30,0.00,,,0.00,WUHU21623XXSP,2013-03-07 22:42:00,
2013-03-07 16:47:00,61.5,29.8,30.27,East,90,0.0,3.1,30,0.00,,,0.00,WUHU21623XXSP,2013-03-07 22:47:00,
2013-03-07 16:52:00,61.0,28.3,30.27,ENE,67,0.0,0.0,29,0.00,,,0.00,WUHU21623XXSP,2013-03-07 22:52:00,
2013-03-07 16:57:00,60.3,26.8,30.27,NNW,337,0.0,2.5,28,0.00,,,0.00,WUHU21623XXSP,2013-03-07 22:57:00,
2013-03-07 17:02:00,59.4,27.0,30.27,North,0,0.0,2.5,29,0.00,,,0.00,WUHU21623XXSP,2013-03-07 23:02:00,
2013-03-07 17:07:00,59.2,27.8,30.26,ESE,112,0.0,1.6,30,0.00,,,0.00,WUHU21623XXSP,2013-03-07 23:07:00,
2013-03-07 17:12:00,59.2,28.5,30.26,ESE,112,0.0,1.6,31,0.00,,,0.00,WUHU21623XXSP,2013-03-07 23:12:00,
2013-03-07 17:17:00,59.0,28.4,30.26,ESE,112,0.0,0.0,31,0.00,,,0.00,WUHU21623XXSP,2013-03-07 23:17:00,
2013-03-07 17:22:00,58.6,28.8,30.26,ESE,112,0.0,0.0,32,0.00,,,0.00,WUHU21623XXSP,2013-03-07 23:22:00,
2013-03-07 17:27:00,58.6,28.8,30.26,ESE,112,0.0,0.0,32,0.00,,,0.00,WUHU21623XXSP,2013-03-07 23:27:00,
2013-03-07 17:32:00,58.1,28.3,30.26,ESE,112,0.0,0.0,32,0.00,,,0.00,WUHU21623XXSP,2013-03-07 23:32:00,
2013-03-07 17:37:00,57.6,28.5,30.26,ESE,112,0.0,0.0,33,0.00,,,0.00,WUHU21623XXSP,2013-03-07 23:37:00,
2013-03-07 17:42:00,57.0,28.7,30.26,ESE,112,0.0,0.0,34,0.00,,,0.00,WUHU21623XXSP,2013-03-07 23:42:00,
2013-03-07 17:47:00,56.1,27.9,30.26,ESE,112,0.0,0.0,34,0.00,,,0.00,WUHU21623XXSP,2013-03-07 23:47:00,
2013-03-07 17:52:00,55.6,27.4,30.26,ESE,112,0.0,0.0,34,0.00,,,0.00,WUHU21623XXSP,2013-03-07 23:52:00,
2013-03-07 17:57:00,54.7,26.6,30.26,ESE,112,0.0,0.0,34,0.00,,,0.00,WUHU21623XXSP,2013-03-07 23:57:00,
2013-03-07 18:02:00,53.8,26.6,30.26,ESE,112,0.0,0.0,35,0.00,,,0.00,WUHU21623XXSP,2013-03-08 00:02:00,
2013-03-07 18:07:00,53.2,26.1,30.26,ESE,112,0.0,0.0,35,0.00,,,0.00,WUHU21623XXSP,2013-03-08 00:07:00,
2013-03-07 18:12:00,52.7,26.3,30.26,ESE,112,0.0,0.0,36,0.00,,,0.00,WUHU21623XXSP,2013-03-08 00:12:00,
2013-03-07 18:17:00,52.0,25.6,30.26,ESE,112,0.0,0.0,36,0.00,,,0.00,WUHU21623XXSP,2013-03-08 00:17:00,
2013-03-07 18:22:00,51.4,25.2,30.26,ESE,112,0.0,0.0,36,0.00,,,0.00,WUHU21623XXSP,2013-03-08 00:22:00,
2013-03-07 18:27:00,50.9,24.7,30.26,ESE,112,0.0,0.0,36,0.00,,,0.00,WUHU21623XXSP,2013-03-08 00:27:00,
2013-03-07 18:33:00,50.2,25.4,30.26,ESE,112,0.0,0.0,38,0.00,,,0.00,WUHU21623XXSP,2013-03-08 00:33:00,
2013-03-07 18:38:00,49.6,24.9,30.26,ESE,112,0.0,0.0,38,0.00,,,0.00,WUHU21623XXSP,2013-03-08 00:38:00,
2013-03-07 18:43:00,48.6,24.6,30.26,ESE,112,0.0,0.0,39,0.00,,,0.00,WUHU21623XXSP,2013-03-08 00:43:00,
2013-03-07 18:48:00,48.2,24.3,30.27,ESE,112,0.0,0.0,39,0.00,,,0.00,WUHU21623XXSP,2013-03-08 00:48:00,
2013-03-07 18:53:00,47.5,23.7,30.26,ESE,112,0.0,0.0,39,0.00,,,0.00,WUHU21623XXSP,2013-03-08 00:53:00,
2013-03-07 18:58:00,46.8,23.0,30.27,ESE,112,0.0,0.0,39,0.00,,,0.00,WUHU21623XXSP,2013-03-08 00:58:00,
2013-03-07 19:03:00,46.6,23.5,30.27,ESE,112,0.0,0.0,40,0.00,,,0.00,WUHU21623XXSP,2013-03-08 01:03:00,
2013-03-07 19:08:00,45.9,23.0,30.26,ESE,112,0.0,0.0,40,0.00,,,0.00,WUHU21623XXSP,2013-03-08 01:08:00,
2013-03-07 19:13:00,45.1,22.2,30.27,ESE,112,0.0,0.0,40,0.00,,,0.00,WUHU21623XXSP,2013-03-08 01:13:00,
2013-03-07 19:18:00,44.8,22.4,30.27,ESE,112,0.0,0.0,41,0.00,,,0.00,WUHU21623XXSP,2013-03-08 01:18:00,
2013-03-07 19:23:00,44.2,22.5,30.27,ESE,112,0.0,0.0,42,0.00,,,0.00,WUHU21623XXSP,2013-03-08 01:23:00,
2013-03-07 19:28:00,43.9,22.2,30.27,ESE,112,0.0,0.0,42,0.00,,,0.00,WUHU21623XXSP,2013-03-08 01:28:00,
2013-03-07 19:33:00,43.5,22.4,30.27,ESE,112,0.0,0.0,43,0.00,,,0.00,WUHU21623XXSP,2013-03-08 01:33:00,
2013-03-07 19:38:00,43.2,22.2,30.27,ESE,112,0.0,0.0,44,0.00,,,0.00,WUHU21623XXSP,2013-03-08 01:38:00,
2013-03-07 19:43:00,42.6,22.1,30.27,ESE,112,0.0,0.0,44,0.00,,,0.00,WUHU21623XXSP,2013-03-08 01:43:00,
2013-03-07 19:48:00,42.3,22.3,30.27,ESE,112,0.0,0.0,45,0.00,,,0.00,WUHU21623XXSP,2013-03-08 01:48:00,
2013-03-07 19:53:00,42.1,22.1,30.27,ESE,112,0.0,0.0,45,0.00,,,0.00,WUHU21623XXSP,2013-03-08 01:53:00,
2013-03-07 19:58:00,41.7,21.8,30.27,ESE,112,0.0,0.0,46,0.00,,,0.00,WUHU21623XXSP,2013-03-08 01:58:00,
2013-03-07 20:03:00,41.4,22.0,30.27,ESE,112,0.0,0.0,46,0.00,,,0.00,WUHU21623XXSP,2013-03-08 02:03:00,
2013-03-07 20:08:00,41.2,22.3,30.27,ESE,112,0.0,0.0,47,0.00,,,0.00,WUHU21623XXSP,2013-03-08 02:08:00,
2013-03-07 20:13:00,40.8,22.0,30.27,ESE,112,0.0,0.0,47,0.00,,,0.00,WUHU21623XXSP,2013-03-08 02:13:00,
2013-03-07 20:18:00,40.6,22.4,30.28,ESE,112,0.0,0.0,48,0.00,,,0.00,WUHU21623XXSP,2013-03-08 02:18:00,
2013-03-07 20:23:00,40.6,22.4,30.27,ESE,112,0.0,0.0,48,0.00,,,0.00,WUHU21623XXSP,2013-03-08 02:23:00,
2013-03-07 20:28:00,40.3,22.5,30.27,ESE,112,0.0,0.0,49,0.00,,,0.00,WUHU21623XXSP,2013-03-08 02:28:00,
2013-03-07 20:33:00,40.1,22.4,30.27,ESE,112,0.0,0.0,49,0.00,,,0.00,WUHU21623XXSP,2013-03-08 02:33:00,
2013-03-07 20:38:00,39.9,22.7,30.27,ESE,112,1.1,1.1,50,0.00,,,0.00,WUHU21623XXSP,2013-03-08 02:38:00,
2013-03-07 20:43:00,39.7,22.6,30.27,ESE,112,0.0,1.1,50,0.00,,,0.00,WUHU21623XXSP,2013-03-08 02:43:00,
2013-03-07 20:48:00,39.6,22.9,30.27,ESE,112,0.0,1.1,51,0.00,,,0.00,WUHU21623XXSP,2013-03-08 02:48:00,
2013-03-07 20:53:00,39.6,22.9,30.27,ESE,112,0.0,0.0,51,0.00,,,0.00,WUHU21623XXSP,2013-03-08 02:53:00,
2013-03-07 20:58:00,39.6,22.9,30.27,ESE,112,0.0,0.0,51,0.00,,,0.00,WUHU21623XXSP,2013-03-08 02:58:00,
2013-03-07 21:03:00,39.4,22.7,30.27,ESE,112,0.0,0.0,51,0.00,,,0.00,WUHU21623XXSP,2013-03-08 03:03:00,
2013-03-07 21:08:00,39.4,23.1,30.27,ESE,112,0.0,0.0,52,0.00,,,0.00,WUHU21623XXSP,2013-03-08 03:08:00,
2013-03-07 21:13:00,39.0,22.8,30.28,ESE,112,0.0,0.0,52,0.00,,,0.00,WUHU21623XXSP,2013-03-08 03:13:00,
2013-03-07 21:18:00,38.8,22.6,30.28,ESE,112,0.0,0.0,52,0.00,,,0.00,WUHU21623XXSP,2013-03-08 03:18:00,
2013-03-07 21:23:00,38.7,22.5,30.28,ESE,112,0.0,0.0,52,0.00,,,0.00,WUHU21623XXSP,2013-03-08 03:23:00,
2013-03-07 21:28:00,38.3,22.2,30.28,ESE,112,0.0,0.0,52,0.00,,,0.00,WUHU21623XXSP,2013-03-08 03:28:00,
2013-03-07 21:33:00,38.3,22.2,30.28,ESE,112,0.0,0.0,52,0.00,,,0.00,WUHU21623XXSP,2013-03-08 03:33:00,
2013-03-07 21:38:00,38.3,22.2,30.28,East,90,0.0,0.0,52,0.00,,,0.00,WUHU21623XXSP,2013-03-08 03:38:00,
2013-03-07 21:43:00,37.9,22.3,30.27,East,90,0.0,0.0,53,0.00,,,0.00,WUHU21623XXSP,2013-03-08 03:43:00,
2013-03-07 21:48:00,37.9,22.3,30.28,East,90,2.7,2.7,53,0.00,,,0.00,WUHU21623XXSP,2013-03-08 03:48:00,
2013-03-07 21:53:00,37.9,23.1,30.28,ENE,67,0.0,2.7,55,0.00,,,0.00,WUHU21623XXSP,2013-03-08 03:53:00,
2013-03-07 21:58:00,37.9,23.1,30.28,ENE,67,0.0,2.7,55,0.00,,,0.00,WUHU21623XXSP,2013-03-08 03:58:00,
2013-03-07 22:03:00,37.9,23.1,30.28,ENE,67,0.0,0.0,55,0.00,,,0.00,WUHU21623XXSP,2013-03-08 04:03:00,
2013-03-07 22:08:00,37.8,23.0,30.28,ENE,67,0.0,0.0,55,0.00,,,0.00,WUHU21623XXSP,2013-03-08 04:08:00,
2013-03-07 22:13:00,37.6,22.8,30.28,ENE,67,0.0,0.0,55,0.00,,,0.00,WUHU21623XXSP,2013-03-08 04:13:00,
2013-03-07 22:18:00,37.6,22.8,30.29,ENE,67,0.0,0.0,55,0.00,,,0.00,WUHU21623XXSP,2013-03-08 04:18:00,
2013-03-07 22:23:00,37.4,22.6,30.29,ENE,67,0.0,0.0,55,0.00,,,0.00,WUHU21623XXSP,2013-03-08 04:23:00,
2013-03-07 22:28:00,37.0,22.3,30.28,ENE,67,0.0,0.0,55,0.00,,,0.00,WUHU21623XXSP,2013-03-08 04:28:00,
2013-03-07 22:33:00,37.2,22.5,30.28,ENE,67,0.0,0.0,55,0.00,,,0.00,WUHU21623XXSP,2013-03-08 04:33:00,
2013-03-07 22:38:00,37.0,22.7,30.28,ENE,67,2.7,2.7,56,0.00,,,0.00,WUHU21623XXSP,2013-03-08 04:38:00,
2013-03-07 22:43:00,37.0,22.7,30.28,ENE,67,2.7,2.7,56,0.00,,,0.00,WUHU21623XXSP,2013-03-08 04:43:00,
2013-03-07 22:48:00,36.9,22.6,30.28,ENE,67,0.0,2.7,56,0.00,,,0.00,WUHU21623XXSP,2013-03-08 04:48:00,
2013-03-07 22:53:00,36.9,23.0,30.28,ENE,67,1.8,1.8,57,0.00,,,0.00,WUHU21623XXSP,2013-03-08 04:53:00,
2013-03-07 22:58:00,36.7,22.9,30.28,ENE,67,2.0,2.0,57,0.00,,,0.00,WUHU21623XXSP,2013-03-08 04:58:00,
2013-03-07 23:00:00,36.7,23.3,30.28,ENE,67,2.0,2.0,58,0.00,,,0.00,WUHU21623XXSP,2013-03-08 05:00:00,
2013-03-07 23:02:00,36.7,23.3,30.28,ENE,67,2.0,2.0,58,0.00,,,0.00,WUHU21623XXSP,2013-03-08 05:02:00,
2013-03-07 23:07:00,36.5,23.1,30.28,ENE,67,1.6,2.0,58,0.00,,,0.00,WUHU21623XXSP,2013-03-08 05:07:00,
2013-03-07 23:12:00,36.5,23.6,30.28,ENE,67,0.0,2.0,59,0.00,,,0.00,WUHU21623XXSP,2013-03-08 05:12:00,
2013-03-07 23:17:00,36.5,23.6,30.28,ENE,67,2.2,2.2,59,0.00,,,0.00,WUHU21623XXSP,2013-03-08 05:17:00,
2013-03-07 23:22:00,36.5,23.6,30.28,ENE,67,0.0,2.2,59,0.00,,,0.00,WUHU21623XXSP,2013-03-08 05:22:00,
2013-03-07 23:27:00,36.5,24.0,30.28,ENE,67,0.0,2.2,60,0.00,,,0.00,WUHU21623XXSP,2013-03-08 05:27:00,
2013-03-07 23:32:00,36.5,24.0,30.28,ENE,67,0.9,2.2,60,0.00,,,0.00,WUHU21623XXSP,2013-03-08 05:32:00,
2013-03-07 23:37:00,36.3,23.8,30.28,ENE,67,1.6,1.6,60,0.00,,,0.00,WUHU21623XXSP,2013-03-08 05:37:00,
2013-03-07 23:42:00,36.3,23.8,30.28,ENE,67,1.1,1.6,60,0.00,,,0.00,WUHU21623XXSP,2013-03-08 05:42:00,
2013-03-07 23:47:00,36.1,23.7,30.28,ENE,67,0.0,1.1,60,0.00,,,0.00,WUHU21623XXSP,2013-03-08 05:47:00,
2013-03-07 23:52:00,36.1,23.7,30.28,ENE,67,0.0,1.1,60,0.00,,,0.00,WUHU21623XXSP,2013-03-08 05:52:00,
2013-03-07 23:57:00,36.1,23.7,30.28,ENE,67,0.0,0.0,60,0.00,,,0.00,WUHU21623XXSP,2013-03-08 05:57:00,